Das Wetter in  D-61279 Heinzenberg / Taunus





Wetter Minimum- & Maximum-Werte im April 2012

Standort: Heinzenberg / Taunus - Höhe 297 m         8 24' 1" Ost 50 21' 51" Nord
(   3-stündige Aktualisierung    letzte Aktualisierung um 19:04 am 30.04.2012  )


Messgrösse

Minimum

Maximum

Durchschnitt

Temperatur West /
Luftfeuchte West
Anklicken für Monats-Diagramm

-4,1 C

07:02
01.04.2012

25 %

16:41
28.04.2012

30,4 C

17:06
28.04.2012

98 %

06:08
13.04.2012

Temp

8,3 C

Feuchte

72 %

Temperatur Ost /
Luftfeuchte Ost
Anklicken für Monats-Diagramm

-4,1 C

07:07
01.04.2012

--

--
--

31,1 C

16:56
28.04.2012

--

--
--

8,4 C

--

Luftdruck Anklicken für Monats-Diagramm

991,1 hPa

02:39
19.04.2012

1021,8 hPa

08:32
01.04.2012

1006,7 hPa

Taupunkt

-7,9 C

16:27
01.04.2012

14,1 C

11:26
28.04.2012

3,2 C

Windchill
( gefühlte Temperatur )

-8,2 C

20:31
22.04.2012

30,4 C

17:11
28.04.2012

5,7 C

Windgeschwindigkeit /
Windrichtung
Anklicken für Monats-Diagramm

---

52,1 km/h / W-SW

20:31
22.04.2012

9,4 km/h
W-SW

Helligkeit /
Sonnenschein
Anklicken für Monats-Diagramm
Anklicken für Monats-Diagramm

Sonnenschein:

125:01 Stunden

Max: 11:05 Std am
01.04.2012

107,0 klux

14:17
24.04.2012

27 klux

Solarstrahlung Anklicken für Monats-Diagramm

---

732 W/m

14:17
24.04.2012

200 W/m

Regenmenge
    April 2012
Anklicken für Monats-Diagramm

Insgesamt 49,4 l/m

in 69:14 Stunden
an 21 Tagen

7,8 l/m

00:30
04.04.2012

Gesamtmenge

49,4 l/m

Regen-Tage
    April 2012
Anklicken für Monats-Diagramm

>   0 mm/Tag

>   2 mm/Tag

>   5 mm/Tag

> 10 mm/Tag

> 20 mm/Tag

21 Tage     
7 Tage     
4 Tage     
0 Tage     
0 Tage     

Eisige Tage April 2012 / 2011

Tmin ≤ -10C     

0 Tage

/

0 Tage

Eistage April 2012 / 2011

Tmax <     0C     

0 Tage

/

0 Tage

Frosttage April 2012 / 2011

Tmin ≤     0C     

8 Tage

/

  1 Tag

Kalte Tage April 2012 / 2011

Tmax <   10C     

4 Tage

/

0 Tage

Warme Tage April 2012 / 2011

Tmax ≥   20C     

3 Tage

/

17 Tage

Sommertage April 2012 / 2011

Tmax ≥   25C     

2 Tage

/

5 Tage

Heisse Tage April 2012 / 2011

Tmax ≥   30C     

  1 Tag

/

0 Tage


Monatsdiagramm April 2012

Die Kurven zeigen den Durchschnittswert des jeweiligen Tages an


Wetter-Monatsübersicht April 2012
Datum
  Temperatur
   Luftdruck
   Wind
  Regen
   Luftfeuchte
   Helligkeit

Sonnen-
schein


Temp.

Min.
Temp.

Max.
Temp.


Luftdruck

Min.
Luftdruck

Max.
Luftdruck

-Geschw.
Haupt-Richtg.

Max.
Wind

Menge /
Dauer


Feuchte

Min.
Feuchte

Max.
Feuchte


Helligkeit

Max.
Helligkeit

1.
April
3,4 C-4,1 C
07:02
11,5 C
17:22
1018,1 hPa1013,8 hPa
19:12
1021,8 hPa
08:32
7,4 km/h
W-NW
30,1 km/h
14:17  
---
61 %26 %
16:27
90 %
09:07
40,0 klux69,7 klux
13:12
11:05 Std 
2.
April
5,7 C-0,6 C
06:48
12,4 C
16:38
1011,6 hPa1006,9 hPa
22:49
1014,9 hPa
04:53
2,3 km/h
NW
13,6 km/h
15:13  
---
71 %56 %
13:48
87 %
07:53
24,5 klux71,7 klux
13:43
1:50 Std 
3.
April
10,4 C0,9 C
07:29
19,0 C
17:19
1003,2 hPa999,3 hPa
18:54
1007,0 hPa
01:59
5,7 km/h
W-SW
33,1 km/h
15:49  
---
20 Minuten
61 %32 %
13:54
92 %
08:04
37,7 klux75,1 klux
13:54
9:15 Std 
4.
April
10,2 C6,6 C
23:56
15,0 C
17:05
1006,5 hPa1001,1 hPa
00:00
1013,2 hPa
23:56
8,8 km/h
W
26,5 km/h
16:45  
7,8 l/m
5:05 Stunden
79 %48 %
18:30
96 %
06:30
29,4 klux80,8 klux
13:05
4:40 Std 
5.
April
6,3 C5,1 C
23:47
7,8 C
14:51
1015,0 hPa1013,2 hPa
00:01
1016,5 hPa
23:47
7,5 km/h
NO
26,8 km/h
11:31  
---
82 %74 %
14:11
87 %
01:51
9,7 klux25,5 klux
14:46
--- 
6.
April
5,7 C2,4 C
23:58
11,7 C
17:37
1012,2 hPa1008,2 hPa
21:47
1016,5 hPa
00:52
4,3 km/h
W
19,4 km/h
16:12  
---
74 %50 %
17:57
83 %
01:32
18,8 klux74,3 klux
15:42
2:50 Std 
7.
April
3,9 C1,6 C
07:08
7,3 C
12:43
1007,6 hPa1006,2 hPa
03:53
1010,6 hPa
23:49
9,9 km/h
W-NW
27,8 km/h
13:48  
1,2 l/m
4:05 Stunden
77 %57 %
17:58
95 %
08:23
16,4 klux88,4 klux
12:38
30 Min 
8.
April
3,2 C-1,6 C
07:29
9,6 C
17:54
1014,0 hPa1010,6 hPa
00:04
1016,6 hPa
11:44
4,5 km/h
W-NW
19,3 km/h
17:34  
---
55 %33 %
18:24
77 %
07:04
34,3 klux92,6 klux
13:34
7:45 Std 
9.
April
4,7 C-0,5 C
00:00
7,2 C
23:36
1007,0 hPa1001,7 hPa
23:36
1014,1 hPa
00:00
13,8 km/h
SW
30,0 km/h
14:40  
7,0 l/m
11:03 Stunden
83 %59 %
03:25
96 %
23:01
13,4 klux48,8 klux
11:45
--- 
10.
April
9,9 C7,2 C
00:01
15,0 C
13:46
998,1 hPa995,6 hPa
16:31
1001,7 hPa
00:01
16,5 km/h
SW
39,8 km/h
12:36  
5,5 l/m
7:30 Stunden
83 %59 %
14:01
97 %
01:51
18,6 klux93,0 klux
13:41
35 Min 
11.
April
8,8 C4,6 C
23:57
12,7 C
16:32
999,3 hPa995,2 hPa
01:02
1003,0 hPa
23:57
11,3 km/h
W
30,0 km/h
02:52  
1,8 l/m
3:20 Stunden
77 %48 %
16:57
96 %
07:42
26,3 klux94,5 klux
13:32
2:15 Std 
12.
April
5,5 C1,9 C
03:12
10,7 C
10:52
1003,0 hPa1001,3 hPa
14:52
1005,3 hPa
23:53
3,3 km/h
W-SW
34,9 km/h
16:02  
4,7 l/m
2:30 Stunden
86 %66 %
12:22
95 %
23:58
19,0 klux98,8 klux
13:52
1:45 Std 
13.
April
6,0 C-0,5 C
05:38
14,8 C
17:43
1005,3 hPa1003,9 hPa
17:43
1007,2 hPa
10:03
2,6 km/h
W-NW
18,1 km/h
14:48  
---
77 %40 %
17:48
98 %
06:08
32,3 klux90,1 klux
12:33
5:25 Std 
14.
April
6,6 C-1,4 C
07:04
15,3 C
13:34
1004,2 hPa1001,9 hPa
16:09
1005,9 hPa
07:04
3,2 km/h
NO
25,2 km/h
12:34  
---
66 %33 %
13:34
94 %
08:04
30,6 klux83,1 klux
12:14
5:30 Std 
15.
April
7,0 C1,2 C
04:55
12,3 C
16:25
1008,2 hPa1005,2 hPa
00:00
1014,2 hPa
23:56
11,1 km/h
NO
34,0 km/h
14:55  
---
69 %48 %
13:00
87 %
06:35
25,2 klux69,6 klux
11:25
3:05 Std 
16.
April
5,5 C-0,3 C
23:57
10,9 C
13:31
1018,4 hPa1014,2 hPa
00:01
1021,3 hPa
23:57
10,2 km/h
NW
26,2 km/h
17:46  
0,5 l/m
5:35 Stunden
64 %37 %
12:46
90 %
07:31
29,8 klux93,0 klux
13:46
3:30 Std 
17.
April
4,9 C-3,4 C
06:42
13,0 C
17:02
1012,1 hPa1001,6 hPa
23:58
1021,5 hPa
01:27
8,9 km/h
W-SW
34,5 km/h
15:52  
---
58 %33 %
17:57
88 %
07:57
38,9 klux90,6 klux
12:52
9:05 Std 
18.
April
8,7 C4,7 C
03:58
13,8 C
15:33
997,0 hPa992,2 hPa
22:34
1001,7 hPa
02:33
15,2 km/h
SW
34,9 km/h
13:28  
0,5 l/m
2:45 Stunden
65 %48 %
00:28
88 %
07:08
31,2 klux100,0 klux
14:28
4:10 Std 
19.
April
9,3 C4,1 C
23:55
14,5 C
13:09
992,4 hPa991,1 hPa
02:39
994,8 hPa
23:55
12,4 km/h
W-SW
41,3 km/h
15:34  
0,9 l/m
1:35 Stunden
69 %51 %
15:04
92 %
23:40
29 klux100 klux
12:34
4:15 Std 
20.
April
6,7 C2,4 C
05:45
14,2 C
16:30
997,6 hPa994,8 hPa
00:00
1000,9 hPa
23:40
5,8 km/h
W-SW
33,4 km/h
17:10  
3,0 l/m
2:40 Stunden
86 %57 %
16:40
96 %
06:25
26 klux97 klux
13:30
5:35 Std 
21.
April
7,5 C4,9 C
01:50
11,8 C
16:30
1001,2 hPa1000,1 hPa
16:30
1004,0 hPa
23:56
13,7 km/h
W-SW
43,2 km/h
14:05  
3,0 l/m
2:49 Stunden
81 %61 %
13:55
92 %
09:45
23,4 klux103,0 klux
11:15
2:16 Std 
22.
April
7,3 C3,3 C
06:46
13,0 C
16:06
1006,8 hPa1004,0 hPa
01:11
1009,2 hPa
22:37
16,6 km/h
W-SW
52,1 km/h
20:31  
7,4 l/m
3:40 Stunden
78 %50 %
14:31
93 %
23:26
37 klux100 klux
14:36
7:00 Std 
23.
April
8,4 C3,9 C
06:31
13,5 C
15:46
1004,1 hPa998,6 hPa
23:27
1008,2 hPa
01:46
14,0 km/h
SW
35,1 km/h
15:56  
1,1 l/m
3:05 Stunden
75 %50 %
16:36
94 %
00:31
36 klux97 klux
13:21
6:19 Std 
24.
April
8,4 C6,6 C
05:27
11,4 C
16:12
997,4 hPa996,0 hPa
16:12
1001,7 hPa
23:48
13,2 km/h
SW
49,0 km/h
12:12  
1,4 l/m
3:10 Stunden
81 %68 %
11:57
88 %
02:42
23,9 klux107,0 klux
14:17
1:30 Std 
25.
April
9,7 C5,9 C
07:03
14,1 C
12:53
1003,1 hPa1001,7 hPa
00:03
1004,9 hPa
07:23
16,6 km/h
W-SW
40,0 km/h
16:13  
0,5 l/m
2:05 Stunden
75 %54 %
18:28
91 %
03:03
27 klux99 klux
12:33
4:15 Std 
26.
April
10,9 C9,4 C
06:59
12,4 C
15:29
1007,6 hPa1001,3 hPa
01:24
1013,8 hPa
23:35
17,7 km/h
W-SW
40,3 km/h
16:34  
1,5 l/m
4:21 Stunden
78 %69 %
05:29
87 %
08:24
14,3 klux40,9 klux
15:29
--- 
27.
April
13,2 C9,8 C
00:00
18,2 C
12:25
1015,8 hPa1013,7 hPa
01:25
1017,5 hPa
22:21
7,5 km/h
W-SW
34,9 km/h
12:55  
0,3 l/m
1:20 Stunden
73 %54 %
12:15
88 %
23:36
24,1 klux93,4 klux
15:20
2:25 Std 
28.
April
18,9 C9,2 C
06:41
30,4 C
17:06
1011,8 hPa1006,4 hPa
21:56
1016,6 hPa
01:21
3,0 km/h
SO
20,3 km/h
13:31  
0,3 l/m
50 Minuten
63 %25 %
16:41
97 %
08:06
41,4 klux79,8 klux
12:21
10:10 Std 
29.
April
16,3 C11,2 C
02:57
23,6 C
17:47
1006,7 hPa1002,9 hPa
09:27
1015,4 hPa
23:37
8,3 km/h
W
45,0 km/h
14:07  
1,1 l/m
56 Minuten
65 %40 %
17:42
83 %
23:22
24,7 klux91,3 klux
14:32
3:05 Std 
30.
April
17,5 C11,0 C
07:07
25,5 C
17:13
1014,6 hPa1011,1 hPa
18:07
1017,8 hPa
07:07
6,6 km/h
NO
31,7 km/h
15:17  
---
30 Minuten
62 %31 %
13:47
93 %
07:07
36,0 klux88,8 klux
13:52
4:56 Std 



April
2012

Temperatur

  

Luftdruck

  

Wind

  

Regen

  

Luftfeuchte

  

Helligkeit

Sonnen-
schein

Min

Max

Min

Max

Max

Max

Min

Max

Max

Max

8,3 C

-4,1 C

07:02 Uhr
01.04.2012

30,4 C

17:06 Uhr
28.04.2012

1006,7 hPa

991,1 hPa

02:39 Uhr
19.04.2012

1021,8 hPa

08:32 Uhr
01.04.2012

9,4 km/h

W-SW

52,1 km/h

20:31 Uhr
22.04.2012

7,8 l/m

5:05 Stunden
04.04.2012

72 %

25 %

16:41 Uhr
28.04.2012

98 %

06:08 Uhr
13.04.2012

27,3 klux

107,0 klux

14:17 Uhr
24.04.2012

11:05 Std

am
01.04.2012

Gesamt

Gesamt

49,4 l/m

21 Tage
69:14 h

125:01 Std


Wetter-Diagramme April 2012     Heinzenberg / Taunus   
TemperaturLuftfeuchte
SolarstrahlungLuftdruck
HelligkeitSonnenschein
RegenmengeRegendauer
Wind-GeschwindigkeitWind-Richtung